Time,TemperatureF,DewpointF,PressureIn,WindDirection,WindDirectionDegrees,WindSpeedMPH,WindSpeedGustMPH,Humidity,HourlyPrecipIn,Conditions,Clouds,dailyrainin,SoftwareType,DateUTC
2013-03-25 00:03:00,26.0,26.0,28.86,NNW,330,10.0,-999.0,98,19.61,,,-99.99,,2013-03-25 05:03:00,
2013-03-25 00:12:00,26.0,26.0,28.86,NNW,330,10.0,-999.0,98,19.61,,,-99.99,,2013-03-25 05:12:00,
2013-03-25 00:22:00,26.0,26.0,28.86,NW,323,13.0,-999.0,99,19.61,,,-99.99,,2013-03-25 05:22:00,
2013-03-25 00:33:00,26.0,26.0,28.86,NW,323,13.0,-999.0,99,19.61,,,-99.99,,2013-03-25 05:33:00,
2013-03-25 00:42:00,26.0,26.0,28.86,NW,323,13.0,-999.0,99,19.61,,,-99.99,,2013-03-25 05:42:00,
2013-03-25 00:52:00,26.0,26.0,28.86,NW,326,10.0,-999.0,99,19.61,,,-99.99,,2013-03-25 05:52:00,
2013-03-25 01:02:00,26.0,26.0,28.86,NW,326,10.0,-999.0,99,19.61,,,-99.99,,2013-03-25 06:02:00,
2013-03-25 01:12:00,26.0,26.0,28.86,NW,326,10.0,-999.0,99,19.61,,,-99.99,,2013-03-25 06:12:00,
2013-03-25 01:22:00,27.0,27.0,28.87,NNW,329,7.0,-999.0,99,19.61,,,-99.99,,2013-03-25 06:22:00,
2013-03-25 01:33:00,27.0,27.0,28.87,NNW,329,7.0,-999.0,99,19.61,,,-99.99,,2013-03-25 06:33:00,
2013-03-25 01:42:00,27.0,27.0,28.87,NNW,329,7.0,-999.0,99,19.61,,,-99.99,,2013-03-25 06:42:00,
2013-03-25 01:52:00,27.0,27.0,28.87,NNW,333,9.0,-999.0,99,19.61,,,-99.99,,2013-03-25 06:52:00,
2013-03-25 02:02:00,27.0,27.0,28.87,NNW,333,9.0,-999.0,99,19.61,,,-99.99,,2013-03-25 07:02:00,
2013-03-25 02:12:00,27.0,27.0,28.87,NNW,333,9.0,-999.0,99,19.61,,,-99.99,,2013-03-25 07:12:00,
2013-03-25 02:22:00,27.0,27.0,28.87,NNW,336,10.0,-999.0,100,19.61,,,-99.99,,2013-03-25 07:22:00,
2013-03-25 02:32:00,27.0,27.0,28.87,NNW,336,10.0,-999.0,100,19.61,,,-99.99,,2013-03-25 07:32:00,
2013-03-25 02:42:00,27.0,27.0,28.87,NNW,336,10.0,-999.0,100,19.61,,,-99.99,,2013-03-25 07:42:00,
2013-03-25 02:53:00,27.0,27.0,28.87,NNW,329,13.0,-999.0,100,19.61,,,-99.99,,2013-03-25 07:53:00,
2013-03-25 03:02:00,27.0,27.0,28.87,NNW,329,13.0,-999.0,100,19.61,,,-99.99,,2013-03-25 08:02:00,
2013-03-25 03:12:00,27.0,27.0,28.87,NNW,329,13.0,-999.0,100,19.61,,,-99.99,,2013-03-25 08:12:00,
2013-03-25 03:22:00,26.0,26.0,28.88,NNW,330,14.0,-999.0,100,19.61,,,-99.99,,2013-03-25 08:22:00,
2013-03-25 03:32:00,26.0,26.0,28.88,NNW,330,14.0,-999.0,100,19.61,,,-99.99,,2013-03-25 08:32:00,
2013-03-25 03:43:00,26.0,26.0,28.88,NNW,330,14.0,-999.0,100,19.61,,,-99.99,,2013-03-25 08:43:00,
2013-03-25 03:52:00,26.0,26.0,28.88,NNW,333,11.0,-999.0,99,19.61,,,-99.99,,2013-03-25 08:52:00,
2013-03-25 04:02:00,26.0,26.0,28.88,NNW,333,11.0,-999.0,99,19.61,,,-99.99,,2013-03-25 09:02:00,
2013-03-25 04:12:00,26.0,26.0,28.88,NNW,333,11.0,-999.0,99,19.61,,,-99.99,,2013-03-25 09:12:00,
2013-03-25 04:22:00,26.0,25.0,28.89,NNW,333,16.0,-999.0,97,19.61,,,-99.99,,2013-03-25 09:22:00,
2013-03-25 04:33:00,26.0,25.0,28.89,NNW,333,16.0,-999.0,97,19.61,,,-99.99,,2013-03-25 09:33:00,
2013-03-25 04:43:00,26.0,25.0,28.89,NNW,333,16.0,-999.0,97,19.61,,,-99.99,,2013-03-25 09:43:00,
2013-03-25 04:52:00,26.0,25.0,28.89,NNE,18,11.0,-999.0,96,19.61,,,-99.99,,2013-03-25 09:52:00,
2013-03-25 05:03:00,26.0,25.0,28.89,NNE,18,11.0,-999.0,96,19.61,,,-99.99,,2013-03-25 10:03:00,
2013-03-25 05:12:00,26.0,25.0,28.89,NNE,18,11.0,-999.0,96,19.61,,,-99.99,,2013-03-25 10:12:00,
2013-03-25 05:22:00,26.0,25.0,28.90,NW,305,14.0,-999.0,95,19.61,,,-99.99,,2013-03-25 10:22:00,
2013-03-25 05:33:00,26.0,25.0,28.90,NW,305,14.0,-999.0,95,19.61,,,-99.99,,2013-03-25 10:33:00,
2013-03-25 05:43:00,26.0,25.0,28.90,NW,305,14.0,-999.0,95,19.61,,,-99.99,,2013-03-25 10:43:00,
2013-03-25 05:54:00,26.0,25.0,28.90,NW,314,13.0,-999.0,95,19.61,,,-99.99,,2013-03-25 10:54:00,
2013-03-25 06:03:00,26.0,25.0,28.90,NW,314,13.0,-999.0,95,19.61,,,-99.99,,2013-03-25 11:03:00,
2013-03-25 06:12:00,25.0,24.0,28.92,NNW,332,10.0,-999.0,94,19.61,,,-99.99,,2013-03-25 11:12:00,
2013-03-25 06:23:00,25.0,24.0,28.92,NNW,332,10.0,-999.0,94,19.61,,,-99.99,,2013-03-25 11:23:00,
2013-03-25 06:32:00,25.0,24.0,28.92,NNW,332,10.0,-999.0,94,19.61,,,-99.99,,2013-03-25 11:32:00,
2013-03-25 06:42:00,25.0,24.0,28.92,NNW,332,10.0,-999.0,94,19.61,,,-99.99,,2013-03-25 11:42:00,
2013-03-25 06:52:00,25.0,24.0,28.92,NW,319,11.0,-999.0,95,19.61,,,-99.99,,2013-03-25 11:52:00,
2013-03-25 07:02:00,25.0,24.0,28.92,NW,319,11.0,-999.0,95,19.61,,,-99.99,,2013-03-25 12:02:00,
2013-03-25 07:13:00,25.0,24.0,28.92,NW,325,13.0,-999.0,96,19.61,,,-99.99,,2013-03-25 12:13:00,
2013-03-25 07:23:00,25.0,24.0,28.92,NW,325,13.0,-999.0,96,19.61,,,-99.99,,2013-03-25 12:23:00,
2013-03-25 07:33:00,25.0,24.0,28.92,NW,325,13.0,-999.0,96,19.61,,,-99.99,,2013-03-25 12:33:00,
2013-03-25 07:43:00,25.0,24.0,28.92,NW,325,13.0,-999.0,96,19.61,,,-99.99,,2013-03-25 12:43:00,
2013-03-25 07:53:00,25.0,24.0,28.93,WNW,294,17.0,-999.0,97,19.61,,,-99.99,,2013-03-25 12:53:00,
2013-03-25 08:02:00,25.0,24.0,28.93,WNW,294,17.0,-999.0,97,19.61,,,-99.99,,2013-03-25 13:02:00,
2013-03-25 08:13:00,25.0,24.0,28.93,WNW,294,17.0,-999.0,97,19.61,,,-99.99,,2013-03-25 13:13:00,
2013-03-25 08:22:00,25.0,25.0,28.94,NW,322,10.0,-999.0,98,19.61,,,-99.99,,2013-03-25 13:22:00,
2013-03-25 08:32:00,25.0,25.0,28.94,NW,322,10.0,-999.0,98,19.61,,,-99.99,,2013-03-25 13:32:00,
2013-03-25 08:43:00,25.0,25.0,28.94,NW,322,10.0,-999.0,98,19.61,,,-99.99,,2013-03-25 13:43:00,
2013-03-25 08:52:00,24.0,24.0,28.95,NNW,329,11.0,-999.0,98,19.61,,,-99.99,,2013-03-25 13:52:00,
2013-03-25 09:03:00,24.0,24.0,28.95,NNW,329,11.0,-999.0,98,19.61,,,-99.99,,2013-03-25 14:03:00,
2013-03-25 09:12:00,24.0,24.0,28.95,NNW,329,11.0,-999.0,98,19.61,,,-99.99,,2013-03-25 14:12:00,
2013-03-25 09:22:00,25.0,25.0,28.96,NW,311,14.0,-999.0,99,19.61,,,-99.99,,2013-03-25 14:22:00,
2013-03-25 09:33:00,25.0,25.0,28.96,NW,311,14.0,-999.0,99,19.61,,,-99.99,,2013-03-25 14:33:00,
2013-03-25 09:43:00,25.0,25.0,28.96,NW,311,14.0,-999.0,99,19.61,,,-99.99,,2013-03-25 14:43:00,
2013-03-25 09:53:00,25.0,25.0,28.97,NNW,328,14.0,-999.0,99,19.61,,,-99.99,,2013-03-25 14:53:00,
2013-03-25 10:02:00,25.0,25.0,28.97,NNW,328,14.0,-999.0,99,19.61,,,-99.99,,2013-03-25 15:02:00,
2013-03-25 10:12:00,25.0,25.0,28.97,NNW,328,14.0,-999.0,99,19.61,,,-99.99,,2013-03-25 15:12:00,
2013-03-25 10:21:00,25.0,25.0,28.98,NW,319,14.0,-999.0,100,19.61,,,-99.99,,2013-03-25 15:21:00,
2013-03-25 10:22:00,25.0,25.0,28.97,NW,308,14.0,-999.0,100,19.61,,,-99.99,,2013-03-25 15:22:00,
2013-03-25 10:33:00,25.0,25.0,28.97,NW,308,14.0,-999.0,100,19.61,,,-99.99,,2013-03-25 15:33:00,
2013-03-25 10:43:00,25.0,25.0,28.97,NW,308,14.0,-999.0,100,19.61,,,-99.99,,2013-03-25 15:43:00,
2013-03-25 10:53:00,25.0,25.0,28.98,NW,319,14.0,-999.0,100,19.61,,,-99.99,,2013-03-25 15:53:00,
2013-03-25 11:03:00,25.0,25.0,28.98,NW,319,14.0,-999.0,100,19.61,,,-99.99,,2013-03-25 16:03:00,
2013-03-25 11:12:00,25.0,25.0,28.98,NW,319,14.0,-999.0,100,19.61,,,-99.99,,2013-03-25 16:12:00,
2013-03-25 11:33:00,26.0,26.0,29.00,NNW,336,16.0,-999.0,99,19.61,,,-99.99,,2013-03-25 16:33:00,
2013-03-25 11:43:00,26.0,26.0,29.00,NNW,336,16.0,-999.0,99,19.61,,,-99.99,,2013-03-25 16:43:00,
2013-03-25 11:53:00,26.0,26.0,29.00,NW,304,15.0,-999.0,99,19.61,,,-99.99,,2013-03-25 16:53:00,
2013-03-25 12:02:00,26.0,26.0,29.00,NW,304,15.0,-999.0,99,19.61,,,-99.99,,2013-03-25 17:02:00,
2013-03-25 12:12:00,26.0,26.0,29.00,NW,304,15.0,-999.0,99,19.61,,,-99.99,,2013-03-25 17:12:00,
2013-03-25 12:23:00,27.0,27.0,29.01,WNW,294,11.0,-999.0,98,19.61,,,-99.99,,2013-03-25 17:23:00,
2013-03-25 12:33:00,27.0,27.0,29.01,WNW,294,11.0,-999.0,98,19.61,,,-99.99,,2013-03-25 17:33:00,
2013-03-25 12:43:00,27.0,27.0,29.01,WNW,294,11.0,-999.0,98,19.61,,,-99.99,,2013-03-25 17:43:00,
2013-03-25 12:53:00,27.0,27.0,29.01,NW,314,15.0,-999.0,98,19.61,,,-99.99,,2013-03-25 17:53:00,
2013-03-25 13:03:00,27.0,27.0,29.01,NW,314,15.0,-999.0,98,19.61,,,-99.99,,2013-03-25 18:03:00,
2013-03-25 13:12:00,27.0,27.0,29.01,NW,314,15.0,-999.0,98,19.61,,,-99.99,,2013-03-25 18:12:00,
2013-03-25 13:22:00,27.0,26.0,29.02,NNW,332,10.0,-999.0,97,19.61,,,-99.99,,2013-03-25 18:22:00,
2013-03-25 13:33:00,27.0,26.0,29.02,NNW,332,10.0,-999.0,97,19.61,,,-99.99,,2013-03-25 18:33:00,
2013-03-25 13:43:00,27.0,26.0,29.02,NNW,332,10.0,-999.0,97,19.61,,,-99.99,,2013-03-25 18:43:00,
2013-03-25 13:53:00,28.0,27.0,29.02,NW,305,12.0,-999.0,96,19.61,,,-99.99,,2013-03-25 18:53:00,
2013-03-25 14:03:00,28.0,27.0,29.02,NW,305,12.0,-999.0,96,19.61,,,-99.99,,2013-03-25 19:03:00,
2013-03-25 14:12:00,29.0,27.0,29.02,NW,309,18.0,-999.0,93,19.61,,,-99.99,,2013-03-25 19:12:00,
2013-03-25 14:22:00,29.0,27.0,29.02,NW,309,18.0,-999.0,93,19.61,,,-99.99,,2013-03-25 19:22:00,
2013-03-25 14:33:00,29.0,27.0,29.02,NW,309,18.0,-999.0,93,19.61,,,-99.99,,2013-03-25 19:33:00,
2013-03-25 14:43:00,29.0,27.0,29.02,NW,309,18.0,-999.0,93,19.61,,,-99.99,,2013-03-25 19:43:00,
2013-03-25 14:52:00,30.0,28.0,29.01,NW,308,11.0,-999.0,92,19.61,,,-99.99,,2013-03-25 19:52:00,
2013-03-25 15:02:00,30.0,28.0,29.01,NW,308,11.0,-999.0,92,19.61,,,-99.99,,2013-03-25 20:02:00,
2013-03-25 15:12:00,30.0,28.0,29.01,NW,308,11.0,-999.0,92,19.61,,,-99.99,,2013-03-25 20:12:00,
2013-03-25 15:22:00,30.0,27.0,29.02,NW,304,12.0,-999.0,90,19.61,,,-99.99,,2013-03-25 20:22:00,
2013-03-25 15:32:00,30.0,27.0,29.02,NW,304,12.0,-999.0,90,19.61,,,-99.99,,2013-03-25 20:32:00,
2013-03-25 15:42:00,30.0,27.0,29.02,NW,304,12.0,-999.0,90,19.61,,,-99.99,,2013-03-25 20:42:00,
2013-03-25 15:52:00,30.0,28.0,29.02,NW,314,14.0,-999.0,91,19.61,,,-99.99,,2013-03-25 20:52:00,
2013-03-25 16:02:00,30.0,28.0,29.02,NW,314,14.0,-999.0,91,19.61,,,-99.99,,2013-03-25 21:02:00,
2013-03-25 16:12:00,30.0,28.0,29.02,NW,314,14.0,-999.0,91,19.61,,,-99.99,,2013-03-25 21:12:00,
2013-03-25 16:22:00,30.0,27.0,29.02,NW,318,11.0,-999.0,90,19.61,,,-99.99,,2013-03-25 21:22:00,
2013-03-25 16:33:00,30.0,27.0,29.02,NW,318,11.0,-999.0,90,19.61,,,-99.99,,2013-03-25 21:33:00,
2013-03-25 16:43:00,30.0,27.0,29.02,NW,318,11.0,-999.0,90,19.61,,,-99.99,,2013-03-25 21:43:00,
2013-03-25 16:52:00,30.0,28.0,29.03,NW,311,12.0,-999.0,91,19.61,,,-99.99,,2013-03-25 21:52:00,
2013-03-25 17:03:00,30.0,28.0,29.03,NW,311,12.0,-999.0,91,19.61,,,-99.99,,2013-03-25 22:03:00,
2013-03-25 17:12:00,30.0,28.0,29.03,NW,311,12.0,-999.0,91,19.61,,,-99.99,,2013-03-25 22:12:00,
2013-03-25 17:23:00,29.0,27.0,29.03,NW,326,11.0,-999.0,92,19.61,,,-99.99,,2013-03-25 22:23:00,
2013-03-25 17:33:00,29.0,27.0,29.03,NW,326,11.0,-999.0,92,19.61,,,-99.99,,2013-03-25 22:33:00,
2013-03-25 17:42:00,29.0,27.0,29.03,NW,326,11.0,-999.0,92,19.61,,,-99.99,,2013-03-25 22:42:00,
2013-03-25 17:52:00,29.0,27.0,29.04,WNW,285,12.0,-999.0,92,19.61,,,-99.99,,2013-03-25 22:52:00,
2013-03-25 18:02:00,29.0,27.0,29.04,WNW,285,12.0,-999.0,92,19.61,,,-99.99,,2013-03-25 23:02:00,
2013-03-25 18:12:00,29.0,27.0,29.04,WNW,285,12.0,-999.0,92,19.61,,,-99.99,,2013-03-25 23:12:00,
2013-03-25 18:22:00,29.0,27.0,29.04,North,11,8.0,-999.0,92,19.61,,,-99.99,,2013-03-25 23:22:00,
2013-03-25 18:33:00,29.0,27.0,29.04,North,11,8.0,-999.0,92,19.61,,,-99.99,,2013-03-25 23:33:00,
2013-03-25 18:43:00,29.0,27.0,29.04,North,11,8.0,-999.0,92,19.61,,,-99.99,,2013-03-25 23:43:00,
2013-03-25 18:52:00,29.0,27.0,29.05,NNW,329,10.0,-999.0,94,19.61,,,-99.99,,2013-03-25 23:52:00,
2013-03-25 19:02:00,29.0,27.0,29.05,NNW,329,10.0,-999.0,94,19.61,,,-99.99,,2013-03-26 00:02:00,
2013-03-25 19:12:00,29.0,27.0,29.05,NNW,329,10.0,-999.0,94,19.61,,,-99.99,,2013-03-26 00:12:00,
2013-03-25 19:22:00,29.0,27.0,29.06,NW,312,13.0,-999.0,93,19.61,,,-99.99,,2013-03-26 00:22:00,
2013-03-25 19:33:00,29.0,27.0,29.06,NW,312,13.0,-999.0,93,19.61,,,-99.99,,2013-03-26 00:33:00,
2013-03-25 19:43:00,29.0,27.0,29.06,NW,312,13.0,-999.0,93,19.61,,,-99.99,,2013-03-26 00:43:00,
2013-03-25 19:52:00,28.0,26.0,29.07,NW,319,14.0,-999.0,93,19.61,,,-99.99,,2013-03-26 00:52:00,
2013-03-25 20:02:00,28.0,26.0,29.07,NW,319,14.0,-999.0,93,19.61,,,-99.99,,2013-03-26 01:02:00,
2013-03-25 20:12:00,28.0,26.0,29.07,NW,319,14.0,-999.0,93,19.61,,,-99.99,,2013-03-26 01:12:00,
2013-03-25 20:22:00,28.0,27.0,29.07,NNW,340,7.0,-999.0,94,19.61,,,-99.99,,2013-03-26 01:22:00,
2013-03-25 20:33:00,28.0,27.0,29.07,NNW,340,7.0,-999.0,94,19.61,,,-99.99,,2013-03-26 01:33:00,
2013-03-25 20:42:00,28.0,27.0,29.07,NNW,340,7.0,-999.0,94,19.61,,,-99.99,,2013-03-26 01:42:00,
2013-03-25 20:52:00,28.0,27.0,29.07,North,350,9.0,-999.0,94,19.61,,,-99.99,,2013-03-26 01:52:00,
2013-03-25 21:02:00,28.0,27.0,29.07,North,350,9.0,-999.0,94,19.61,,,-99.99,,2013-03-26 02:02:00,
2013-03-25 21:12:00,28.0,27.0,29.07,North,350,9.0,-999.0,94,19.61,,,-99.99,,2013-03-26 02:12:00,
2013-03-25 21:22:00,28.0,27.0,29.08,NW,315,12.0,-999.0,94,19.61,,,-99.99,,2013-03-26 02:22:00,
2013-03-25 21:32:00,28.0,27.0,29.08,NW,315,12.0,-999.0,94,19.61,,,-99.99,,2013-03-26 02:32:00,
2013-03-25 21:43:00,28.0,27.0,29.08,NW,315,12.0,-999.0,94,19.61,,,-99.99,,2013-03-26 02:43:00,
2013-03-25 21:52:00,28.0,26.0,29.08,NW,308,7.0,-999.0,93,19.61,,,-99.99,,2013-03-26 02:52:00,
2013-03-25 22:02:00,28.0,26.0,29.08,NW,308,7.0,-999.0,93,19.61,,,-99.99,,2013-03-26 03:02:00,
2013-03-25 22:12:00,28.0,26.0,29.08,NW,308,7.0,-999.0,93,19.61,,,-99.99,,2013-03-26 03:12:00,
2013-03-25 22:22:00,27.0,25.0,29.09,NNW,336,6.0,-999.0,93,19.61,,,-99.99,,2013-03-26 03:22:00,
2013-03-25 22:34:00,27.0,25.0,29.09,NNW,336,6.0,-999.0,93,19.61,,,-99.99,,2013-03-26 03:34:00,
2013-03-25 22:43:00,27.0,25.0,29.09,NNW,336,6.0,-999.0,93,19.61,,,-99.99,,2013-03-26 03:43:00,
2013-03-25 22:53:00,26.0,24.0,29.10,NW,322,5.0,-999.0,93,19.61,,,-99.99,,2013-03-26 03:53:00,
2013-03-25 23:03:00,26.0,24.0,29.10,NW,322,5.0,-999.0,93,19.61,,,-99.99,,2013-03-26 04:03:00,
2013-03-25 23:12:00,26.0,24.0,29.10,NW,322,5.0,-999.0,93,19.61,,,-99.99,,2013-03-26 04:12:00,
2013-03-25 23:23:00,24.0,23.0,29.10,NW,315,0.0,-999.0,95,19.61,,,-99.99,,2013-03-26 04:23:00,
2013-03-25 23:33:00,24.0,23.0,29.10,NW,315,0.0,-999.0,95,19.61,,,-99.99,,2013-03-26 04:33:00,
2013-03-25 23:43:00,24.0,23.0,29.10,NW,315,0.0,-999.0,95,19.61,,,-99.99,,2013-03-26 04:43:00,
2013-03-25 23:52:00,23.0,22.0,29.10,NW,315,0.0,-999.0,96,19.61,,,-99.99,,2013-03-26 04:52:00,